TimeCST,TemperatureF,Dew PointF,Humidity,Sea Level PressureIn,VisibilityMPH,Wind Direction,Wind SpeedMPH,Gust SpeedMPH,PrecipitationIn,Events,Conditions,WindDirDegrees,DateUTC
12:15 AM,17.6,12.2,79,30.33,10.0,Calm,Calm,-,N/A,,Clear,0,2013-01-14 06:15:00
12:35 AM,17.6,12.2,79,30.34,10.0,Calm,Calm,-,N/A,,Clear,0,2013-01-14 06:35:00
12:55 AM,17.6,12.2,79,30.34,10.0,Calm,Calm,-,N/A,,Clear,0,2013-01-14 06:55:00
1:35 AM,17.6,12.2,79,30.33,10.0,NE,4.6,-,N/A,,Clear,40,2013-01-14 07:35:00
1:55 AM,17.6,12.2,79,30.33,10.0,NE,4.6,-,N/A,,Clear,40,2013-01-14 07:55:00
2:15 AM,17.6,12.2,79,30.34,10.0,NE,3.5,-,N/A,,Clear,50,2013-01-14 08:15:00
2:55 AM,15.8,12.2,86,30.34,10.0,NNE,5.8,-,N/A,,Clear,20,2013-01-14 08:55:00
3:15 AM,15.8,12.2,86,30.33,10.0,NE,6.9,-,N/A,,Clear,40,2013-01-14 09:15:00
3:35 AM,15.8,10.4,79,30.33,10.0,NE,3.5,-,N/A,,Clear,50,2013-01-14 09:35:00
4:15 AM,15.8,10.4,79,30.31,10.0,NE,6.9,-,N/A,,Clear,40,2013-01-14 10:15:00
4:35 AM,15.8,10.4,79,30.29,10.0,NNE,8.1,-,N/A,,Clear,30,2013-01-14 10:35:00
4:55 AM,15.8,10.4,79,30.30,10.0,NNE,5.8,-,N/A,,Clear,30,2013-01-14 10:55:00
5:15 AM,15.8,10.4,79,30.30,10.0,NNE,4.6,-,N/A,,Clear,30,2013-01-14 11:15:00
5:35 AM,15.8,10.4,79,30.31,10.0,NNE,4.6,-,N/A,,Clear,30,2013-01-14 11:35:00
5:55 AM,15.8,10.4,79,30.32,10.0,NNE,3.5,-,N/A,,Clear,20,2013-01-14 11:55:00
6:15 AM,17.6,10.4,73,30.34,10.0,ENE,3.5,-,N/A,,Clear,70,2013-01-14 12:15:00
6:35 AM,17.6,10.4,73,30.31,10.0,NE,4.6,-,N/A,,Clear,40,2013-01-14 12:35:00
6:55 AM,17.6,12.2,79,30.32,10.0,NE,6.9,-,N/A,,Clear,40,2013-01-14 12:55:00
7:15 AM,19.4,12.2,74,30.34,10.0,NNE,6.9,-,N/A,,Mostly Cloudy,20,2013-01-14 13:15:00
7:35 AM,19.4,12.2,74,30.35,10.0,NE,6.9,-,N/A,,Mostly Cloudy,50,2013-01-14 13:35:00
7:55 AM,19.4,12.2,74,30.36,10.0,East,8.1,-,N/A,,Overcast,80,2013-01-14 13:55:00
8:15 AM,19.4,12.2,74,30.38,10.0,ENE,5.8,-,N/A,,Mostly Cloudy,70,2013-01-14 14:15:00
8:35 AM,19.4,12.2,74,30.37,10.0,East,5.8,-,N/A,,Mostly Cloudy,80,2013-01-14 14:35:00
8:55 AM,21.2,12.2,68,30.39,10.0,ENE,5.8,-,N/A,,Overcast,70,2013-01-14 14:55:00
9:15 AM,21.2,12.2,68,30.40,10.0,East,10.4,-,N/A,,Mostly Cloudy,90,2013-01-14 15:15:00
9:35 AM,21.2,10.4,63,30.42,10.0,East,11.5,-,N/A,,Clear,100,2013-01-14 15:35:00
9:55 AM,21.2,10.4,63,30.42,10.0,East,9.2,-,N/A,,Partly Cloudy,80,2013-01-14 15:55:00
10:15 AM,21.2,10.4,63,30.42,10.0,ENE,9.2,-,N/A,,Clear,70,2013-01-14 16:15:00
10:35 AM,23.0,10.4,59,30.42,10.0,ENE,11.5,16.1,N/A,,Clear,70,2013-01-14 16:35:00
10:55 AM,24.8,12.2,59,30.42,10.0,ENE,9.2,-,N/A,,Clear,70,2013-01-14 16:55:00
11:15 AM,24.8,10.4,54,30.41,10.0,NE,11.5,-,N/A,,Clear,40,2013-01-14 17:15:00
11:35 AM,26.6,12.2,55,30.39,10.0,NE,9.2,-,N/A,,Clear,40,2013-01-14 17:35:00
11:55 AM,26.6,12.2,55,30.38,10.0,NE,6.9,-,N/A,,Clear,40,2013-01-14 17:55:00
12:15 PM,26.6,12.2,55,30.37,10.0,ENE,9.2,-,N/A,,Clear,60,2013-01-14 18:15:00
12:35 PM,28.4,12.2,51,30.35,10.0,NNE,8.1,-,N/A,,Clear,30,2013-01-14 18:35:00
12:55 PM,30.2,14.0,51,30.33,10.0,East,10.4,-,N/A,,Clear,80,2013-01-14 18:55:00
1:16 PM,30.2,12.2,47,30.31,10.0,ENE,8.1,-,N/A,,Clear,70,2013-01-14 19:16:00
1:35 PM,32.0,12.2,44,30.31,10.0,NE,5.8,-,N/A,,Clear,40,2013-01-14 19:35:00
2:16 PM,32.0,10.4,41,30.30,10.0,ENE,8.1,-,N/A,,Clear,70,2013-01-14 20:16:00
2:35 PM,33.8,12.2,41,30.29,10.0,East,9.2,-,N/A,,Clear,80,2013-01-14 20:35:00
2:55 PM,33.8,10.4,38,30.30,10.0,ENE,9.2,-,N/A,,Clear,70,2013-01-14 20:55:00
3:16 PM,33.8,10.4,38,30.30,10.0,NE,8.1,-,N/A,,Clear,50,2013-01-14 21:16:00
3:35 PM,33.8,12.2,41,30.29,10.0,NE,6.9,-,N/A,,Clear,40,2013-01-14 21:35:00
3:55 PM,33.8,12.2,41,30.29,10.0,NE,8.1,-,N/A,,Clear,40,2013-01-14 21:55:00
4:15 PM,33.8,10.4,38,30.30,10.0,ENE,8.1,-,N/A,,Clear,70,2013-01-14 22:15:00
4:36 PM,33.8,8.6,35,30.30,10.0,East,8.1,-,N/A,,Clear,80,2013-01-14 22:36:00
4:55 PM,32.0,10.4,41,30.29,10.0,ENE,8.1,-,N/A,,Clear,60,2013-01-14 22:55:00
5:15 PM,30.2,8.6,40,30.29,10.0,East,6.9,-,N/A,,Clear,80,2013-01-14 23:15:00
5:35 PM,30.2,8.6,40,30.29,10.0,East,5.8,-,N/A,,Clear,80,2013-01-14 23:35:00
5:55 PM,28.4,8.6,43,30.29,10.0,ENE,5.8,-,N/A,,Clear,70,2013-01-14 23:55:00
6:15 PM,28.4,10.4,47,30.29,10.0,ENE,4.6,-,N/A,,Clear,70,2013-01-15 00:15:00
6:36 PM,28.4,10.4,47,30.29,10.0,NE,3.5,-,N/A,,Clear,50,2013-01-15 00:36:00
6:55 PM,26.6,10.4,51,30.29,10.0,NE,3.5,-,N/A,,Clear,40,2013-01-15 00:55:00
7:15 PM,26.6,14.0,59,30.29,10.0,NE,3.5,-,N/A,,Clear,50,2013-01-15 01:15:00
7:36 PM,26.6,14.0,59,30.29,10.0,NE,3.5,-,N/A,,Clear,50,2013-01-15 01:36:00
7:55 PM,26.6,14.0,59,30.29,10.0,NE,4.6,-,N/A,,Clear,40,2013-01-15 01:55:00
8:35 PM,24.8,15.8,69,30.29,10.0,NNE,4.6,-,N/A,,Clear,30,2013-01-15 02:35:00
8:55 PM,24.8,15.8,69,30.30,10.0,NNE,4.6,-,N/A,,Clear,30,2013-01-15 02:55:00
9:15 PM,23.0,14.0,68,30.29,10.0,NE,5.8,-,N/A,,Clear,40,2013-01-15 03:15:00
9:35 PM,23.0,15.8,74,30.29,10.0,NNE,6.9,-,N/A,,Clear,30,2013-01-15 03:35:00
10:15 PM,23.0,15.8,74,30.29,10.0,NE,5.8,-,N/A,,Clear,50,2013-01-15 04:15:00
10:35 PM,23.0,15.8,74,30.29,10.0,NE,5.8,-,N/A,,Clear,50,2013-01-15 04:35:00
10:55 PM,23.0,14.0,68,30.29,10.0,NE,5.8,-,N/A,,Clear,50,2013-01-15 04:55:00
11:16 PM,23.0,14.0,68,30.28,10.0,ENE,5.8,-,N/A,,Clear,60,2013-01-15 05:16:00
11:55 PM,21.2,14.0,74,30.29,10.0,NE,4.6,-,N/A,,Clear,40,2013-01-15 05:55:00